View from above orbital plane
|
View from above satellite
|
Ground track
|
The orbit data is extracted from the following two-line orbital elements,
1 33408U 08053A 18112.53880729 -.00000446 00000-0 -36644-4 0 9992
2 33408 97.6753 92.1684 0015995 287.3507 72.5968 14.93770476516960
Epoch (UTC): | 22 April 2018 12:55:52 |
Eccentricity: | 0.0015995 |
inclination: | 97.6753° |
perigee height: | 575 km |
apogee height: | 597 km |
right ascension of ascending node: | 92.1684° |
argument of perigee: | 287.3507° |
revolutions per day: | 14.93770476 |
mean anomaly at epoch: | 72.5968° |
orbit number at epoch: | 51696 |
The dashed part of the orbit path shows where the satellite is in the earth's shadow,
|
|